TimeCDT,TemperatureF,Dew PointF,Humidity,Sea Level PressureIn,VisibilityMPH,Wind Direction,Wind SpeedMPH,Gust SpeedMPH,PrecipitationIn,Events,Conditions,WindDirDegrees,DateUTC
12:15 AM,78.8,68.0,69,29.94,10.0,East,5.8,-,N/A,,Overcast,80,2013-07-21 05:15:00
12:35 AM,78.8,69.8,74,29.95,10.0,ENE,9.2,-,N/A,Rain,Light Rain,70,2013-07-21 05:35:00
12:55 AM,75.2,69.8,83,29.94,10.0,ENE,9.2,-,N/A,Rain,Light Rain,70,2013-07-21 05:55:00
1:15 AM,73.4,71.6,94,29.93,10.0,ENE,8.1,-,N/A,,Light Drizzle,70,2013-07-21 06:15:00
1:35 AM,75.2,71.6,89,29.93,10.0,Calm,Calm,-,N/A,,Overcast,0,2013-07-21 06:35:00
1:55 AM,75.2,71.6,89,29.94,10.0,Calm,Calm,-,N/A,,Overcast,0,2013-07-21 06:55:00
2:15 AM,75.2,71.6,89,29.93,10.0,Calm,Calm,-,N/A,,Light Drizzle,0,2013-07-21 07:15:00
2:35 AM,75.2,69.8,83,29.93,10.0,South,4.6,-,N/A,,Overcast,170,2013-07-21 07:35:00
2:55 AM,75.2,71.6,89,29.93,10.0,Calm,Calm,-,N/A,,Overcast,0,2013-07-21 07:55:00
3:15 AM,75.2,69.8,83,29.93,10.0,Calm,Calm,-,N/A,,Mostly Cloudy,0,2013-07-21 08:15:00
3:35 AM,73.4,71.6,94,29.92,10.0,SSE,5.8,-,N/A,,Overcast,160,2013-07-21 08:35:00
3:55 AM,73.4,69.8,88,29.92,10.0,South,3.5,-,N/A,,Mostly Cloudy,170,2013-07-21 08:55:00
4:15 AM,75.2,68.0,78,29.92,10.0,SSE,3.5,-,N/A,,Mostly Cloudy,160,2013-07-21 09:15:00
4:35 AM,73.4,69.8,88,29.92,10.0,NNE,6.9,-,N/A,,Mostly Cloudy,30,2013-07-21 09:35:00
4:55 AM,73.4,69.8,88,29.92,10.0,SW,3.5,-,N/A,,Overcast,220,2013-07-21 09:55:00
5:15 AM,73.4,68.0,83,29.92,10.0,SW,4.6,-,N/A,,Overcast,230,2013-07-21 10:15:00
5:35 AM,73.4,68.0,83,29.92,10.0,SW,3.5,-,N/A,,Scattered Clouds,230,2013-07-21 10:35:00
5:55 AM,71.6,68.0,88,29.92,10.0,SSE,4.6,-,N/A,,Scattered Clouds,160,2013-07-21 10:55:00
6:15 AM,73.4,68.0,83,29.92,10.0,Calm,Calm,-,N/A,,Scattered Clouds,0,2013-07-21 11:15:00
6:35 AM,71.6,68.0,88,29.92,10.0,Calm,Calm,-,N/A,,Mostly Cloudy,0,2013-07-21 11:35:00
6:55 AM,71.6,68.0,88,29.92,10.0,East,5.8,-,N/A,,Mostly Cloudy,80,2013-07-21 11:55:00
7:15 AM,71.6,68.0,88,29.92,10.0,SSE,5.8,-,N/A,,Scattered Clouds,150,2013-07-21 12:15:00
7:35 AM,73.4,68.0,83,29.91,10.0,SSE,5.8,-,N/A,,Scattered Clouds,150,2013-07-21 12:35:00
7:55 AM,75.2,68.0,78,29.91,10.0,SE,5.8,-,N/A,,Scattered Clouds,140,2013-07-21 12:55:00
8:15 AM,77.0,68.0,74,29.92,10.0,SSE,5.8,-,N/A,,Clear,150,2013-07-21 13:15:00
8:35 AM,78.8,66.2,65,29.91,10.0,SSE,8.1,-,N/A,,Clear,160,2013-07-21 13:35:00
8:55 AM,80.6,66.2,61,29.91,10.0,South,9.2,-,N/A,,Clear,180,2013-07-21 13:55:00
9:15 AM,82.4,66.2,58,29.92,10.0,South,11.5,-,N/A,,Clear,190,2013-07-21 14:15:00
9:35 AM,82.4,64.4,54,29.92,10.0,SSW,16.1,-,N/A,,Clear,210,2013-07-21 14:35:00
9:55 AM,84.2,64.4,51,29.92,10.0,SW,17.3,21.9,N/A,,Clear,220,2013-07-21 14:55:00
10:15 AM,86.0,64.4,48,29.92,10.0,SW,15.0,21.9,N/A,,Clear,220,2013-07-21 15:15:00
10:35 AM,87.8,64.4,46,29.92,10.0,SW,17.3,21.9,N/A,,Clear,220,2013-07-21 15:35:00
10:55 AM,87.8,64.4,46,29.93,10.0,WSW,18.4,23.0,N/A,,Clear,240,2013-07-21 15:55:00
11:15 AM,89.6,64.4,43,29.92,10.0,SSW,16.1,23.0,N/A,,Scattered Clouds,210,2013-07-21 16:15:00
11:35 AM,89.6,62.6,40,29.92,10.0,SW,17.3,24.2,N/A,,Mostly Cloudy,220,2013-07-21 16:35:00
11:55 AM,91.4,64.4,41,29.92,10.0,SW,18.4,25.3,N/A,,Scattered Clouds,230,2013-07-21 16:55:00
12:15 PM,91.4,62.6,38,29.92,10.0,SW,15.0,24.2,N/A,,Scattered Clouds,220,2013-07-21 17:15:00
1:15 PM,95.0,59.0,30,29.91,10.0,SW,18.4,24.2,N/A,,Clear,230,2013-07-21 18:15:00
1:35 PM,95.0,59.0,30,29.91,10.0,SW,19.6,25.3,N/A,,Clear,220,2013-07-21 18:35:00
1:55 PM,96.8,59.0,28,29.89,10.0,WSW,18.4,21.9,N/A,,Clear,240,2013-07-21 18:55:00
2:15 PM,96.8,59.0,28,29.89,10.0,WSW,18.4,24.2,N/A,,Clear,240,2013-07-21 19:15:00
2:35 PM,96.8,59.0,28,29.89,10.0,WSW,12.7,21.9,N/A,,Clear,240,2013-07-21 19:35:00
2:55 PM,96.8,60.8,30,29.88,10.0,SW,13.8,20.7,N/A,,Clear,220,2013-07-21 19:55:00
3:15 PM,96.8,59.0,28,29.87,10.0,SW,16.1,23.0,N/A,,Clear,220,2013-07-21 20:15:00
3:35 PM,98.6,59.0,27,29.86,10.0,SSW,15.0,21.9,N/A,,Clear,210,2013-07-21 20:35:00
3:55 PM,98.6,59.0,27,29.86,10.0,SSW,16.1,19.6,N/A,,Scattered Clouds,210,2013-07-21 20:55:00
4:15 PM,98.6,59.0,27,29.86,10.0,SSW,15.0,-,N/A,,Clear,210,2013-07-21 21:15:00
4:35 PM,95.0,59.0,30,29.86,10.0,WSW,12.7,-,N/A,,Clear,240,2013-07-21 21:35:00
4:55 PM,95.0,59.0,30,29.85,10.0,SSW,13.8,-,N/A,,Clear,210,2013-07-21 21:55:00
5:15 PM,96.8,59.0,28,29.85,10.0,SW,13.8,23.0,N/A,,Clear,220,2013-07-21 22:15:00
5:35 PM,98.6,57.2,25,29.85,10.0,SSW,12.7,-,N/A,,Clear,200,2013-07-21 22:35:00
5:55 PM,98.6,57.2,25,29.84,10.0,SW,13.8,23.0,N/A,,Clear,220,2013-07-21 22:55:00
6:15 PM,98.6,57.2,25,29.84,10.0,South,13.8,23.0,N/A,,Clear,190,2013-07-21 23:15:00
6:35 PM,98.6,55.4,24,29.84,10.0,SSW,15.0,-,N/A,,Scattered Clouds,210,2013-07-21 23:35:00
6:55 PM,96.8,55.4,25,29.84,10.0,SSW,11.5,19.6,N/A,,Scattered Clouds,200,2013-07-21 23:55:00
7:15 PM,96.8,55.4,25,29.84,10.0,South,15.0,19.6,N/A,,Scattered Clouds,180,2013-07-22 00:15:00
7:35 PM,95.0,55.4,26,29.84,10.0,South,16.1,-,N/A,,Clear,190,2013-07-22 00:35:00
7:55 PM,93.2,55.4,28,29.84,10.0,South,11.5,-,N/A,,Clear,190,2013-07-22 00:55:00
8:15 PM,91.4,55.4,29,29.85,10.0,South,11.5,-,N/A,,Clear,180,2013-07-22 01:15:00
8:35 PM,89.6,57.2,33,29.85,10.0,South,11.5,-,N/A,,Clear,190,2013-07-22 01:35:00
8:55 PM,89.6,59.0,36,29.85,10.0,SSW,10.4,16.1,N/A,,Clear,200,2013-07-22 01:55:00
9:15 PM,87.8,57.2,35,29.85,10.0,SSW,10.4,-,N/A,,Clear,200,2013-07-22 02:15:00
9:35 PM,86.0,59.0,40,29.86,10.0,South,11.5,-,N/A,,Clear,190,2013-07-22 02:35:00
9:55 PM,86.0,57.2,37,29.86,10.0,South,12.7,-,N/A,,Clear,190,2013-07-22 02:55:00
10:15 PM,86.0,57.2,37,29.87,10.0,South,13.8,-,N/A,,Clear,190,2013-07-22 03:15:00
10:35 PM,86.0,55.4,35,29.88,10.0,South,13.8,19.6,N/A,,Clear,190,2013-07-22 03:35:00
10:55 PM,86.0,55.4,35,29.88,10.0,SSW,16.1,-,N/A,,Clear,200,2013-07-22 03:55:00
11:15 PM,86.0,55.4,35,29.89,10.0,SSW,17.3,-,N/A,,Clear,200,2013-07-22 04:15:00
11:35 PM,86.0,57.2,37,29.89,10.0,SSW,15.0,-,N/A,,Clear,200,2013-07-22 04:35:00
11:55 PM,84.2,57.2,40,29.89,10.0,SSW,16.1,-,N/A,,Clear,200,2013-07-22 04:55:00